Time,TemperatureF,DewpointF,PressureIn,WindDirection,WindDirectionDegrees,WindSpeedMPH,WindSpeedGustMPH,Humidity,HourlyPrecipIn,Conditions,Clouds,dailyrainin,SoftwareType,DateUTC
2013-08-01 00:01:00,69.1,61.9,29.87,SSE,149,0.0,7.0,78,0.00,,,0.00,meteohub,2013-08-01 04:01:00,
2013-08-01 00:02:00,68.9,61.7,29.87,SSE,149,0.0,7.0,78,0.00,,,0.00,meteohub,2013-08-01 04:02:00,
2013-08-01 00:07:00,68.7,61.2,29.87,SSE,149,2.0,7.0,77,0.00,,,0.00,meteohub,2013-08-01 04:07:00,
2013-08-01 00:13:00,68.7,61.2,29.87,SE,146,0.0,6.0,77,0.00,,,0.00,meteohub,2013-08-01 04:13:00,
2013-08-01 00:18:00,68.7,61.2,29.87,SE,145,0.0,5.0,77,0.00,,,0.00,meteohub,2013-08-01 04:18:00,
2013-08-01 00:23:00,68.5,61.0,29.86,SE,145,0.0,5.0,77,0.00,,,0.00,meteohub,2013-08-01 04:23:00,
2013-08-01 00:28:00,68.5,61.0,29.86,SE,144,6.0,6.0,77,0.00,,,0.00,meteohub,2013-08-01 04:28:00,
2013-08-01 00:33:00,68.5,61.0,29.86,SSE,148,2.0,6.0,77,0.00,,,0.00,meteohub,2013-08-01 04:33:00,
2013-08-01 00:38:00,68.5,61.0,29.86,SE,129,0.0,6.0,77,0.00,,,0.00,meteohub,2013-08-01 04:38:00,
2013-08-01 00:43:00,68.5,61.0,29.86,ESE,110,0.0,6.0,77,0.00,,,0.00,meteohub,2013-08-01 04:43:00,
2013-08-01 00:48:00,68.5,61.0,29.85,ESE,106,1.0,5.0,77,0.00,,,0.00,meteohub,2013-08-01 04:48:00,
2013-08-01 00:53:00,68.4,60.8,29.85,SE,145,1.0,5.0,77,0.00,,,0.00,meteohub,2013-08-01 04:53:00,
2013-08-01 00:58:00,68.4,60.8,29.85,ESE,119,0.0,6.0,77,0.00,,,0.00,meteohub,2013-08-01 04:58:00,
2013-08-01 01:03:00,68.4,60.8,29.84,South,188,2.0,7.0,77,0.00,,,0.00,meteohub,2013-08-01 05:03:00,
2013-08-01 01:08:00,68.4,60.8,29.84,SE,134,0.0,7.0,77,0.00,,,0.00,meteohub,2013-08-01 05:08:00,
2013-08-01 01:13:00,68.4,60.8,29.84,SSE,153,1.0,7.0,77,0.00,,,0.00,meteohub,2013-08-01 05:13:00,
2013-08-01 01:18:00,68.4,60.8,29.83,SE,130,0.0,6.0,77,0.00,,,0.00,meteohub,2013-08-01 05:18:00,
2013-08-01 01:23:00,68.4,60.8,29.83,SE,143,4.0,6.0,77,0.00,,,0.00,meteohub,2013-08-01 05:23:00,
2013-08-01 01:28:00,68.2,61.0,29.83,South,172,2.0,6.0,78,0.00,,,0.00,meteohub,2013-08-01 05:28:00,
2013-08-01 01:33:00,68.2,61.0,29.83,SSE,167,0.0,5.0,78,0.00,,,0.00,meteohub,2013-08-01 05:33:00,
2013-08-01 01:39:00,68.0,61.2,29.83,SSE,165,0.0,5.0,79,0.00,,,0.00,meteohub,2013-08-01 05:39:00,
2013-08-01 01:44:00,68.0,61.2,29.83,SSE,167,0.0,5.0,79,0.00,,,0.00,meteohub,2013-08-01 05:44:00,
2013-08-01 01:49:00,68.0,61.2,29.82,SSE,168,0.0,6.0,79,0.00,,,0.00,meteohub,2013-08-01 05:49:00,
2013-08-01 01:54:00,68.0,61.2,29.82,SSE,168,0.0,6.0,79,0.00,,,0.00,meteohub,2013-08-01 05:54:00,
2013-08-01 01:59:00,68.0,61.2,29.82,SSE,168,2.0,6.0,79,0.00,,,0.00,meteohub,2013-08-01 05:59:00,
2013-08-01 02:04:00,68.0,61.2,29.81,SSE,168,0.0,5.0,79,0.00,,,0.00,meteohub,2013-08-01 06:04:00,
2013-08-01 02:09:00,68.2,61.3,29.81,SSE,168,1.0,5.0,79,0.00,,,0.00,meteohub,2013-08-01 06:09:00,
2013-08-01 02:14:00,68.2,61.3,29.81,SSE,168,0.0,5.0,79,0.00,,,0.00,meteohub,2013-08-01 06:14:00,
2013-08-01 02:19:00,68.2,61.3,29.81,SSE,168,0.0,5.0,79,0.00,,,0.00,meteohub,2013-08-01 06:19:00,
2013-08-01 02:24:00,68.2,61.0,29.80,SSE,167,1.0,5.0,78,0.00,,,0.00,meteohub,2013-08-01 06:24:00,
2013-08-01 02:29:00,68.4,61.2,29.80,South,172,6.0,8.0,78,0.00,,,0.00,meteohub,2013-08-01 06:29:00,
2013-08-01 02:34:00,68.4,61.2,29.80,SSE,164,0.0,8.0,78,0.00,,,0.00,meteohub,2013-08-01 06:34:00,
2013-08-01 02:39:00,68.4,61.2,29.80,SSW,194,3.0,8.0,78,0.00,,,0.00,meteohub,2013-08-01 06:39:00,
2013-08-01 02:44:00,68.5,61.3,29.80,SSE,155,0.0,8.0,78,0.00,,,0.00,meteohub,2013-08-01 06:44:00,
2013-08-01 02:49:00,68.4,61.2,29.79,South,175,1.0,8.0,78,0.00,,,0.00,meteohub,2013-08-01 06:49:00,
2013-08-01 02:54:00,68.4,61.2,29.79,SSW,192,2.0,8.0,78,0.00,,,0.00,meteohub,2013-08-01 06:54:00,
2013-08-01 02:59:00,68.4,61.2,29.79,SSW,192,1.0,6.0,78,0.00,,,0.00,meteohub,2013-08-01 06:59:00,
2013-08-01 03:04:00,68.4,61.2,29.79,SSW,192,0.0,6.0,78,0.00,,,0.00,meteohub,2013-08-01 07:04:00,
2013-08-01 03:09:00,68.4,61.2,29.78,SSW,192,0.0,5.0,78,0.00,,,0.00,meteohub,2013-08-01 07:09:00,
2013-08-01 03:14:00,68.4,61.2,29.78,SSW,192,0.0,3.0,78,0.00,,,0.00,meteohub,2013-08-01 07:14:00,
2013-08-01 03:19:00,68.4,61.2,29.78,SSW,192,0.0,3.0,78,0.00,,,0.00,meteohub,2013-08-01 07:19:00,
2013-08-01 03:24:00,68.2,61.0,29.78,SSW,192,0.0,2.0,78,0.00,,,0.00,meteohub,2013-08-01 07:24:00,
2013-08-01 03:29:00,68.2,61.0,29.78,SSW,192,0.0,3.0,78,0.00,,,0.00,meteohub,2013-08-01 07:29:00,
2013-08-01 03:35:00,68.2,61.3,29.78,SSW,192,0.0,3.0,79,0.00,,,0.00,meteohub,2013-08-01 07:35:00,
2013-08-01 03:40:00,68.2,61.3,29.78,SSW,192,0.0,3.0,79,0.00,,,0.00,meteohub,2013-08-01 07:40:00,
2013-08-01 03:45:00,68.0,61.2,29.77,SSW,192,3.0,3.0,79,0.00,,,0.00,meteohub,2013-08-01 07:45:00,
2013-08-01 03:51:00,68.0,61.2,29.77,SSW,192,4.0,4.0,79,0.00,,,0.00,meteohub,2013-08-01 07:51:00,
2013-08-01 03:56:00,68.0,61.2,29.77,South,190,0.0,4.0,79,0.00,,,0.00,meteohub,2013-08-01 07:56:00,
2013-08-01 04:01:00,67.8,61.3,29.77,South,182,0.0,4.0,80,0.00,,,0.00,meteohub,2013-08-01 08:01:00,
2013-08-01 04:07:00,67.8,61.3,29.77,South,182,0.0,4.0,80,0.00,,,0.00,meteohub,2013-08-01 08:07:00,
2013-08-01 04:12:00,68.0,61.2,29.77,South,182,0.0,4.0,79,0.00,,,0.00,meteohub,2013-08-01 08:12:00,
2013-08-01 04:17:00,68.0,61.5,29.77,South,182,2.0,4.0,80,0.00,,,0.00,meteohub,2013-08-01 08:17:00,
2013-08-01 04:22:00,68.0,61.5,29.77,South,182,2.0,4.0,80,0.00,,,0.00,meteohub,2013-08-01 08:22:00,
2013-08-01 04:27:00,68.0,61.2,29.77,South,169,4.0,6.0,79,0.00,,,0.00,meteohub,2013-08-01 08:27:00,
2013-08-01 04:32:00,68.2,61.3,29.77,South,179,4.0,6.0,79,0.00,,,0.00,meteohub,2013-08-01 08:32:00,
2013-08-01 04:37:00,68.2,61.3,29.77,South,180,3.0,7.0,79,0.00,,,0.00,meteohub,2013-08-01 08:37:00,
2013-08-01 04:42:00,68.2,61.3,29.77,South,186,3.0,7.0,79,0.00,,,0.00,meteohub,2013-08-01 08:42:00,
2013-08-01 04:48:00,68.2,61.3,29.77,South,169,5.0,7.0,79,0.00,,,0.00,meteohub,2013-08-01 08:48:00,
2013-08-01 04:54:00,68.2,61.7,29.77,South,191,1.0,7.0,80,0.00,,,0.00,meteohub,2013-08-01 08:54:00,
2013-08-01 05:00:00,67.6,61.5,29.77,South,184,4.0,8.0,81,0.00,,,0.00,meteohub,2013-08-01 09:00:00,
2013-08-01 05:06:00,67.6,61.9,29.77,South,174,2.0,8.0,82,0.00,,,0.00,meteohub,2013-08-01 09:06:00,
2013-08-01 05:12:00,67.3,62.2,29.76,South,184,4.0,7.0,84,0.00,,,0.00,meteohub,2013-08-01 09:12:00,
2013-08-01 05:19:00,66.9,61.9,29.76,SSE,165,0.0,7.0,84,0.00,,,0.00,meteohub,2013-08-01 09:19:00,
2013-08-01 05:24:00,66.6,62.2,29.76,South,182,4.0,8.0,86,0.01,,,0.01,meteohub,2013-08-01 09:24:00,
2013-08-01 05:29:00,66.2,62.2,29.76,South,173,6.0,12.0,87,0.01,,,0.01,meteohub,2013-08-01 09:29:00,
2013-08-01 05:34:00,66.0,62.4,29.76,South,176,7.0,12.0,88,0.02,,,0.01,meteohub,2013-08-01 09:34:00,
2013-08-01 05:39:00,65.7,62.2,29.76,South,182,0.0,12.0,89,0.02,,,0.02,meteohub,2013-08-01 09:39:00,
2013-08-01 05:45:00,65.7,62.6,29.76,South,180,1.0,8.0,90,0.02,,,0.02,meteohub,2013-08-01 09:45:00,
2013-08-01 05:51:00,65.5,62.4,29.76,SSE,167,0.0,7.0,90,0.02,,,0.02,meteohub,2013-08-01 09:51:00,
2013-08-01 05:57:00,65.3,62.6,29.76,South,186,2.0,6.0,91,0.03,,,0.03,meteohub,2013-08-01 09:57:00,
2013-08-01 06:02:00,65.1,62.8,29.76,SSW,202,4.0,8.0,92,0.03,,,0.03,meteohub,2013-08-01 10:02:00,
2013-08-01 06:07:00,65.1,62.8,29.76,SW,224,1.0,8.0,92,0.03,,,0.03,meteohub,2013-08-01 10:07:00,
2013-08-01 06:17:00,65.1,63.0,29.76,South,186,1.0,9.0,93,0.03,,,0.05,meteohub,2013-08-01 10:17:00,
2013-08-01 06:22:00,65.1,63.0,29.76,South,184,0.0,9.0,93,0.05,,,0.05,meteohub,2013-08-01 10:22:00,
2013-08-01 06:28:00,65.1,63.0,29.77,South,188,3.0,9.0,93,0.08,,,0.08,meteohub,2013-08-01 10:28:00,
2013-08-01 06:35:00,64.9,62.8,29.77,South,185,4.0,9.0,93,0.08,,,0.20,meteohub,2013-08-01 10:35:00,
2013-08-01 06:42:00,64.9,62.8,29.76,SSE,151,6.0,6.0,93,0.23,,,0.24,meteohub,2013-08-01 10:42:00,
2013-08-01 06:49:00,64.9,63.1,29.75,South,169,5.0,7.0,94,0.27,,,0.28,meteohub,2013-08-01 10:49:00,
2013-08-01 06:54:00,65.1,63.3,29.75,South,187,3.0,8.0,94,0.29,,,0.32,meteohub,2013-08-01 10:54:00,
2013-08-01 06:59:00,65.1,63.3,29.75,South,173,5.0,8.0,94,0.30,,,0.33,meteohub,2013-08-01 10:59:00,
2013-08-01 07:05:00,65.1,63.3,29.75,SSE,167,6.0,9.0,94,0.32,,,0.34,meteohub,2013-08-01 11:05:00,
2013-08-01 07:11:00,65.1,63.7,29.75,South,180,5.0,9.0,95,0.32,,,0.35,meteohub,2013-08-01 11:11:00,
2013-08-01 07:17:00,65.3,63.9,29.75,South,175,5.0,8.0,95,0.30,,,0.36,meteohub,2013-08-01 11:17:00,
2013-08-01 07:24:00,65.3,63.9,29.75,South,177,5.0,8.0,95,0.30,,,0.36,meteohub,2013-08-01 11:24:00,
2013-08-01 07:30:00,65.5,64.0,29.74,SSE,161,6.0,9.0,95,0.21,,,0.36,meteohub,2013-08-01 11:30:00,
2013-08-01 07:35:00,65.5,64.0,29.74,SSW,198,3.0,9.0,95,0.16,,,0.37,meteohub,2013-08-01 11:35:00,
2013-08-01 07:40:00,65.7,64.2,29.74,South,182,2.0,9.0,95,0.12,,,0.37,meteohub,2013-08-01 11:40:00,
2013-08-01 07:45:00,65.7,64.4,29.74,South,175,1.0,9.0,96,0.07,,,0.37,meteohub,2013-08-01 11:45:00,
2013-08-01 07:51:00,65.8,64.6,29.74,SSW,196,3.0,6.0,96,0.06,,,0.37,meteohub,2013-08-01 11:51:00,
2013-08-01 07:57:00,65.8,64.6,29.75,SSW,199,0.0,6.0,96,0.04,,,0.37,meteohub,2013-08-01 11:57:00,
2013-08-01 08:02:00,65.8,64.6,29.74,SSW,199,2.0,6.0,96,0.04,,,0.37,meteohub,2013-08-01 12:02:00,
2013-08-01 08:07:00,66.0,64.6,29.74,SW,215,0.0,6.0,95,0.02,,,0.37,meteohub,2013-08-01 12:07:00,
2013-08-01 08:13:00,66.0,64.6,29.74,SW,232,1.0,6.0,95,0.02,,,0.37,meteohub,2013-08-01 12:13:00,
2013-08-01 08:18:00,66.0,64.8,29.74,SSW,206,2.0,6.0,96,0.01,,,0.37,meteohub,2013-08-01 12:18:00,
2013-08-01 08:23:00,66.2,64.9,29.74,SSW,207,1.0,6.0,96,0.01,,,0.37,meteohub,2013-08-01 12:23:00,
2013-08-01 08:28:00,66.4,65.1,29.73,SW,219,2.0,7.0,96,0.00,,,0.37,meteohub,2013-08-01 12:28:00,
2013-08-01 08:35:00,66.6,65.3,29.74,SSW,202,6.0,8.0,96,0.00,,,0.37,meteohub,2013-08-01 12:35:00,
2013-08-01 08:41:00,66.7,65.5,29.73,South,185,1.0,8.0,96,0.00,,,0.37,meteohub,2013-08-01 12:41:00,
2013-08-01 08:46:00,66.7,65.5,29.73,SSW,205,0.0,8.0,96,0.00,,,0.37,meteohub,2013-08-01 12:46:00,
2013-08-01 08:51:00,66.9,65.7,29.74,SW,220,5.0,8.0,96,0.00,,,0.37,meteohub,2013-08-01 12:51:00,
2013-08-01 08:56:00,66.9,65.7,29.73,WSW,244,5.0,7.0,96,0.00,,,0.37,meteohub,2013-08-01 12:56:00,
2013-08-01 09:02:00,66.7,65.3,29.74,WSW,238,5.0,10.0,95,0.00,,,0.37,meteohub,2013-08-01 13:02:00,
2013-08-01 09:07:00,66.7,65.3,29.73,SW,229,10.0,10.0,95,0.00,,,0.37,meteohub,2013-08-01 13:07:00,
2013-08-01 09:13:00,66.7,65.3,29.73,South,180,4.0,11.0,95,0.01,,,0.38,meteohub,2013-08-01 13:13:00,
2013-08-01 09:18:00,66.7,65.3,29.73,South,184,6.0,11.0,95,0.01,,,0.38,meteohub,2013-08-01 13:18:00,
2013-08-01 09:25:00,66.9,65.5,29.73,SSW,195,7.0,10.0,95,0.01,,,0.38,meteohub,2013-08-01 13:25:00,
2013-08-01 09:30:00,66.9,65.5,29.73,SSW,195,3.0,11.0,95,0.01,,,0.38,meteohub,2013-08-01 13:30:00,
2013-08-01 09:37:00,67.3,65.8,29.73,South,178,4.0,13.0,95,0.01,,,0.38,meteohub,2013-08-01 13:37:00,
2013-08-01 09:42:00,67.3,65.8,29.73,South,171,7.0,13.0,95,0.01,,,0.38,meteohub,2013-08-01 13:42:00,
2013-08-01 09:47:00,67.5,66.0,29.73,SSW,208,5.0,13.0,95,0.01,,,0.38,meteohub,2013-08-01 13:47:00,
2013-08-01 09:52:00,67.6,66.2,29.73,South,181,9.0,11.0,95,0.01,,,0.38,meteohub,2013-08-01 13:52:00,
2013-08-01 09:58:00,67.8,66.0,29.73,SSW,196,6.0,11.0,94,0.01,,,0.38,meteohub,2013-08-01 13:58:00,
2013-08-01 10:06:00,68.0,66.2,29.73,SSW,200,7.0,11.0,94,0.01,,,0.38,meteohub,2013-08-01 14:06:00,
2013-08-01 10:11:00,68.2,66.4,29.73,SSW,201,4.0,13.0,94,0.01,,,0.38,meteohub,2013-08-01 14:11:00,
2013-08-01 10:17:00,68.4,66.2,29.73,South,191,7.0,18.0,93,0.00,,,0.38,meteohub,2013-08-01 14:17:00,
2013-08-01 10:22:00,68.5,66.4,29.73,South,188,7.0,18.0,93,0.00,,,0.38,meteohub,2013-08-01 14:22:00,
2013-08-01 10:27:00,68.7,66.9,29.73,SSW,213,3.0,18.0,94,0.00,,,0.38,meteohub,2013-08-01 14:27:00,
2013-08-01 10:32:00,69.4,67.6,29.73,South,184,5.0,14.0,94,0.00,,,0.38,meteohub,2013-08-01 14:32:00,
2013-08-01 10:38:00,69.6,67.8,29.73,SW,230,11.0,14.0,94,0.00,,,0.38,meteohub,2013-08-01 14:38:00,
2013-08-01 10:44:00,70.9,68.7,29.73,South,185,3.0,19.0,93,0.00,,,0.38,meteohub,2013-08-01 14:44:00,
2013-08-01 10:49:00,70.9,68.2,29.74,West,273,9.0,19.0,91,0.00,,,0.38,meteohub,2013-08-01 14:49:00,
2013-08-01 10:54:00,70.3,67.3,29.74,WNW,303,2.0,19.0,90,0.00,,,0.53,meteohub,2013-08-01 14:54:00,
2013-08-01 11:01:00,68.7,66.0,29.74,WNW,287,0.0,22.0,91,0.20,,,0.58,meteohub,2013-08-01 15:01:00,
2013-08-01 11:07:00,67.8,65.7,29.75,WNW,296,5.0,9.0,93,0.20,,,0.58,meteohub,2013-08-01 15:07:00,
2013-08-01 11:13:00,67.8,65.7,29.75,NW,314,2.0,9.0,93,0.20,,,0.58,meteohub,2013-08-01 15:13:00,
2013-08-01 11:18:00,68.0,66.6,29.75,WNW,290,5.0,11.0,95,0.20,,,0.58,meteohub,2013-08-01 15:18:00,
2013-08-01 11:23:00,68.0,66.2,29.75,WNW,298,2.0,13.0,94,0.20,,,0.58,meteohub,2013-08-01 15:23:00,
2013-08-01 11:29:00,68.2,66.7,29.76,WNW,290,6.0,13.0,95,0.20,,,0.58,meteohub,2013-08-01 15:29:00,
2013-08-01 11:37:00,68.4,66.6,29.76,West,260,4.0,17.0,94,0.20,,,0.58,meteohub,2013-08-01 15:37:00,
2013-08-01 11:42:00,68.7,66.4,29.76,NW,311,1.0,17.0,92,0.20,,,0.58,meteohub,2013-08-01 15:42:00,
2013-08-01 11:48:00,69.3,66.9,29.76,WNW,300,6.0,16.0,92,0.18,,,0.58,meteohub,2013-08-01 15:48:00,
2013-08-01 11:54:00,69.6,65.8,29.77,WNW,295,12.0,15.0,88,0.01,,,0.58,meteohub,2013-08-01 15:54:00,
2013-08-01 11:59:00,70.3,66.0,29.77,West,278,4.0,16.0,86,0.00,,,0.58,meteohub,2013-08-01 15:59:00,
2013-08-01 12:05:00,71.1,66.4,29.77,WNW,294,8.0,16.0,85,0.00,,,0.58,meteohub,2013-08-01 16:05:00,
2013-08-01 12:10:00,71.2,65.8,29.78,NW,308,7.0,16.0,83,0.00,,,0.58,meteohub,2013-08-01 16:10:00,
2013-08-01 12:17:00,71.8,66.0,29.78,West,281,7.0,13.0,82,0.00,,,0.58,meteohub,2013-08-01 16:17:00,
2013-08-01 12:22:00,72.0,65.5,29.78,WSW,239,4.0,15.0,80,0.00,,,0.58,meteohub,2013-08-01 16:22:00,
2013-08-01 12:30:00,71.8,65.3,29.78,WNW,302,5.0,15.0,80,0.00,,,0.58,meteohub,2013-08-01 16:30:00,
2013-08-01 12:37:00,71.8,64.9,29.78,WNW,299,4.0,12.0,79,0.00,,,0.58,meteohub,2013-08-01 16:37:00,
2013-08-01 12:43:00,72.0,64.4,29.78,West,276,9.0,12.0,77,0.00,,,0.58,meteohub,2013-08-01 16:43:00,
2013-08-01 12:52:00,72.0,64.4,29.78,NW,312,0.0,13.0,77,0.00,,,0.58,meteohub,2013-08-01 16:52:00,
2013-08-01 12:58:00,72.0,64.0,29.78,West,263,8.0,13.0,76,0.00,,,0.58,meteohub,2013-08-01 16:58:00,
2013-08-01 13:04:00,72.0,64.4,29.78,North,5,1.0,13.0,77,0.00,,,0.58,meteohub,2013-08-01 17:04:00,
2013-08-01 13:10:00,72.5,64.9,29.78,NW,321,5.0,13.0,77,0.00,,,0.58,meteohub,2013-08-01 17:10:00,
2013-08-01 13:15:00,72.7,65.5,29.78,WNW,290,1.0,13.0,78,0.00,,,0.58,meteohub,2013-08-01 17:15:00,
2013-08-01 13:20:00,73.0,64.2,29.78,West,276,5.0,11.0,74,0.00,,,0.58,meteohub,2013-08-01 17:20:00,
2013-08-01 13:27:00,73.6,65.8,29.78,WNW,294,4.0,14.0,77,0.00,,,0.58,meteohub,2013-08-01 17:27:00,
2013-08-01 13:32:00,74.1,65.3,29.78,NNW,327,5.0,14.0,74,0.00,,,0.58,meteohub,2013-08-01 17:32:00,
2013-08-01 13:38:00,74.8,64.8,29.78,West,271,0.0,14.0,71,0.00,,,0.58,meteohub,2013-08-01 17:38:00,
2013-08-01 13:43:00,75.0,64.6,29.78,WNW,282,5.0,14.0,70,0.00,,,0.58,meteohub,2013-08-01 17:43:00,
2013-08-01 13:49:00,74.7,64.2,29.78,North,5,7.0,14.0,70,0.00,,,0.58,meteohub,2013-08-01 17:49:00,
2013-08-01 13:54:00,74.7,65.1,29.78,WNW,296,0.0,14.0,72,0.00,,,0.58,meteohub,2013-08-01 17:54:00,
2013-08-01 14:02:00,75.0,65.8,29.78,WNW,296,8.0,14.0,73,0.00,,,0.58,meteohub,2013-08-01 18:02:00,
2013-08-01 14:07:00,75.6,65.5,29.78,West,261,11.0,12.0,71,0.00,,,0.58,meteohub,2013-08-01 18:07:00,
2013-08-01 14:16:00,75.9,65.8,29.78,NNE,12,2.0,13.0,71,0.00,,,0.58,meteohub,2013-08-01 18:16:00,
2013-08-01 14:21:00,77.4,65.1,29.78,NNW,335,2.0,13.0,66,0.00,,,0.58,meteohub,2013-08-01 18:21:00,
2013-08-01 14:27:00,77.7,64.0,29.79,NW,322,1.0,9.0,63,0.00,,,0.58,meteohub,2013-08-01 18:27:00,
2013-08-01 14:32:00,77.2,64.0,29.78,WNW,298,5.0,15.0,64,0.00,,,0.58,meteohub,2013-08-01 18:32:00,
2013-08-01 14:37:00,76.6,64.4,29.78,NW,304,5.0,18.0,66,0.00,,,0.58,meteohub,2013-08-01 18:37:00,
2013-08-01 14:47:00,77.4,64.2,29.78,WNW,302,2.0,18.0,64,0.00,,,0.58,meteohub,2013-08-01 18:47:00,
2013-08-01 14:52:00,77.4,63.9,29.78,NNE,24,3.0,18.0,63,0.00,,,0.58,meteohub,2013-08-01 18:52:00,
2013-08-01 14:58:00,76.1,63.0,29.79,West,269,7.0,12.0,64,0.00,,,0.58,meteohub,2013-08-01 18:58:00,
2013-08-01 15:03:00,75.0,63.0,29.78,WSW,245,2.0,15.0,66,0.00,,,0.58,meteohub,2013-08-01 19:03:00,
2013-08-01 15:10:00,75.0,63.7,29.78,WNW,297,0.0,15.0,68,0.00,,,0.58,meteohub,2013-08-01 19:10:00,
2013-08-01 15:16:00,75.7,61.3,29.78,West,271,6.0,15.0,61,0.00,,,0.58,meteohub,2013-08-01 19:16:00,
2013-08-01 15:21:00,75.4,61.9,29.78,WSW,255,2.0,11.0,63,0.00,,,0.58,meteohub,2013-08-01 19:21:00,
2013-08-01 15:27:00,75.2,64.4,29.78,SW,230,0.0,11.0,69,0.00,,,0.58,meteohub,2013-08-01 19:27:00,
2013-08-01 15:33:00,75.0,62.4,29.78,ENE,58,1.0,8.0,65,0.00,,,0.58,meteohub,2013-08-01 19:33:00,
2013-08-01 15:38:00,75.6,65.1,29.79,WSW,246,0.0,7.0,70,0.00,,,0.58,meteohub,2013-08-01 19:38:00,
2013-08-01 15:43:00,75.4,65.3,29.79,SSW,212,6.0,11.0,71,0.00,,,0.58,meteohub,2013-08-01 19:43:00,
2013-08-01 15:49:00,73.6,65.1,29.79,SW,236,7.0,12.0,75,0.00,,,0.58,meteohub,2013-08-01 19:49:00,
2013-08-01 15:54:00,72.9,65.3,29.79,SSW,207,6.0,12.0,77,0.00,,,0.58,meteohub,2013-08-01 19:54:00,
2013-08-01 16:00:00,72.7,65.5,29.79,SW,229,7.0,12.0,78,0.00,,,0.58,meteohub,2013-08-01 20:00:00,
2013-08-01 16:07:00,72.3,65.5,29.79,SW,229,4.0,16.0,79,0.00,,,0.58,meteohub,2013-08-01 20:07:00,
2013-08-01 16:13:00,72.1,65.7,29.78,SSW,203,6.0,17.0,80,0.00,,,0.58,meteohub,2013-08-01 20:13:00,
2013-08-01 16:20:00,72.0,65.8,29.79,South,190,9.0,17.0,81,0.00,,,0.58,meteohub,2013-08-01 20:20:00,
2013-08-01 16:25:00,71.8,65.7,29.79,WNW,292,9.0,17.0,81,0.00,,,0.58,meteohub,2013-08-01 20:25:00,
2013-08-01 16:30:00,71.8,65.7,29.79,SSW,198,3.0,14.0,81,0.00,,,0.58,meteohub,2013-08-01 20:30:00,
2013-08-01 16:35:00,71.1,65.7,29.79,WNW,294,11.0,15.0,83,0.01,,,0.59,meteohub,2013-08-01 20:35:00,
2013-08-01 16:40:00,70.9,66.6,29.79,SW,221,5.0,15.0,86,0.01,,,0.59,meteohub,2013-08-01 20:40:00,
2013-08-01 16:41:00,70.7,66.0,29.79,WNW,294,4.0,15.0,85,0.01,,,0.59,meteohub,2013-08-01 20:41:00,
2013-08-01 16:47:00,70.9,66.6,29.79,SW,215,2.0,13.0,86,0.01,,,0.59,meteohub,2013-08-01 20:47:00,
2013-08-01 16:52:00,71.1,66.4,29.79,South,186,9.0,13.0,85,0.01,,,0.59,meteohub,2013-08-01 20:52:00,
2013-08-01 16:57:00,71.4,65.3,29.79,WSW,237,3.0,13.0,81,0.01,,,0.59,meteohub,2013-08-01 20:57:00,
2013-08-01 17:04:00,71.8,66.0,29.79,West,278,9.0,13.0,82,0.01,,,0.59,meteohub,2013-08-01 21:04:00,
2013-08-01 17:09:00,72.0,65.8,29.79,NW,320,0.0,15.0,81,0.01,,,0.59,meteohub,2013-08-01 21:09:00,
2013-08-01 17:14:00,71.8,66.0,29.79,NW,320,0.0,15.0,82,0.01,,,0.59,meteohub,2013-08-01 21:14:00,
2013-08-01 17:20:00,72.7,65.8,29.79,WNW,288,11.0,15.0,79,0.01,,,0.59,meteohub,2013-08-01 21:20:00,
2013-08-01 17:25:00,73.6,65.5,29.78,West,272,2.0,18.0,76,0.01,,,0.59,meteohub,2013-08-01 21:25:00,
2013-08-01 17:32:00,74.3,65.5,29.78,West,263,6.0,18.0,74,0.00,,,0.59,meteohub,2013-08-01 21:32:00,
2013-08-01 17:37:00,74.5,64.9,29.79,West,266,8.0,22.0,72,0.00,,,0.59,meteohub,2013-08-01 21:37:00,
2013-08-01 17:42:00,74.7,65.8,29.79,WNW,287,5.0,22.0,74,0.00,,,0.59,meteohub,2013-08-01 21:42:00,
2013-08-01 17:47:00,74.1,65.3,29.79,WSW,252,3.0,22.0,74,0.00,,,0.59,meteohub,2013-08-01 21:47:00,
2013-08-01 17:52:00,73.6,65.1,29.79,WNW,286,8.0,17.0,75,0.00,,,0.59,meteohub,2013-08-01 21:52:00,
2013-08-01 17:59:00,73.2,64.8,29.79,SW,218,7.0,17.0,75,0.00,,,0.59,meteohub,2013-08-01 21:59:00,
2013-08-01 18:05:00,72.3,64.4,29.80,WSW,257,10.0,19.0,76,0.00,,,0.59,meteohub,2013-08-01 22:05:00,
2013-08-01 18:12:00,72.1,64.2,29.80,West,273,6.0,19.0,76,0.00,,,0.59,meteohub,2013-08-01 22:12:00,
2013-08-01 18:17:00,72.0,64.0,29.80,West,265,10.0,21.0,76,0.00,,,0.59,meteohub,2013-08-01 22:17:00,
2013-08-01 18:22:00,72.0,64.4,29.80,SW,234,8.0,21.0,77,0.00,,,0.59,meteohub,2013-08-01 22:22:00,
2013-08-01 18:27:00,72.0,64.4,29.80,WSW,258,5.0,21.0,77,0.00,,,0.59,meteohub,2013-08-01 22:27:00,
2013-08-01 18:32:00,72.0,64.0,29.80,SSW,213,3.0,21.0,76,0.00,,,0.59,meteohub,2013-08-01 22:32:00,
2013-08-01 18:37:00,72.0,64.4,29.80,SW,220,9.0,12.0,77,0.00,,,0.59,meteohub,2013-08-01 22:37:00,
2013-08-01 18:42:00,72.1,64.2,29.80,West,259,4.0,14.0,76,0.00,,,0.59,meteohub,2013-08-01 22:42:00,
2013-08-01 18:47:00,72.9,64.4,29.80,WNW,284,16.0,16.0,75,0.00,,,0.59,meteohub,2013-08-01 22:47:00,
2013-08-01 18:52:00,72.7,64.2,29.80,WNW,284,4.0,16.0,75,0.00,,,0.59,meteohub,2013-08-01 22:52:00,
2013-08-01 18:58:00,72.3,63.5,29.81,WNW,286,4.0,20.0,74,0.00,,,0.59,meteohub,2013-08-01 22:58:00,
2013-08-01 19:03:00,72.0,63.7,29.81,WSW,256,4.0,20.0,75,0.00,,,0.59,meteohub,2013-08-01 23:03:00,
2013-08-01 19:09:00,71.4,63.5,29.81,SW,217,9.0,20.0,76,0.00,,,0.59,meteohub,2013-08-01 23:09:00,
2013-08-01 19:14:00,71.2,63.7,29.81,SW,236,0.0,16.0,77,0.00,,,0.59,meteohub,2013-08-01 23:14:00,
2013-08-01 19:19:00,71.1,63.9,29.81,SW,223,3.0,16.0,78,0.00,,,0.59,meteohub,2013-08-01 23:19:00,
2013-08-01 19:25:00,71.1,63.9,29.80,WNW,296,1.0,16.0,78,0.00,,,0.59,meteohub,2013-08-01 23:25:00,
2013-08-01 19:30:00,70.9,63.7,29.81,West,261,1.0,14.0,78,0.00,,,0.59,meteohub,2013-08-01 23:30:00,
2013-08-01 19:35:00,70.9,63.7,29.80,SW,235,4.0,12.0,78,0.00,,,0.59,meteohub,2013-08-01 23:35:00,
2013-08-01 19:41:00,70.9,64.0,29.80,WSW,254,2.0,12.0,79,0.00,,,0.59,meteohub,2013-08-01 23:41:00,
2013-08-01 19:47:00,70.7,63.5,29.80,WSW,242,7.0,11.0,78,0.00,,,0.59,meteohub,2013-08-01 23:47:00,
2013-08-01 19:52:00,70.7,63.9,29.81,WSW,246,6.0,11.0,79,0.00,,,0.59,meteohub,2013-08-01 23:52:00,
2013-08-01 19:57:00,70.7,63.9,29.80,West,279,8.0,15.0,79,0.00,,,0.59,meteohub,2013-08-01 23:57:00,
2013-08-01 20:02:00,70.7,63.9,29.81,SSW,209,5.0,15.0,79,0.00,,,0.59,meteohub,2013-08-02 00:02:00,
2013-08-01 20:07:00,70.9,64.0,29.81,West,270,8.0,15.0,79,0.00,,,0.59,meteohub,2013-08-02 00:07:00,
2013-08-01 20:12:00,70.7,63.9,29.80,South,171,4.0,19.0,79,0.00,,,0.59,meteohub,2013-08-02 00:12:00,
2013-08-01 20:17:00,70.7,64.2,29.80,WSW,240,3.0,19.0,80,0.00,,,0.59,meteohub,2013-08-02 00:17:00,
2013-08-01 20:22:00,70.5,64.0,29.80,SW,220,6.0,19.0,80,0.00,,,0.59,meteohub,2013-08-02 00:22:00,
2013-08-01 20:27:00,70.5,64.4,29.80,WSW,254,2.0,14.0,81,0.00,,,0.59,meteohub,2013-08-02 00:27:00,
2013-08-01 20:32:00,70.3,64.2,29.80,SW,236,1.0,14.0,81,0.00,,,0.59,meteohub,2013-08-02 00:32:00,
2013-08-01 20:37:00,70.3,64.2,29.80,SW,235,4.0,11.0,81,0.00,,,0.59,meteohub,2013-08-02 00:37:00,
2013-08-01 20:42:00,70.3,64.2,29.81,WNW,282,5.0,11.0,81,0.00,,,0.59,meteohub,2013-08-02 00:42:00,
2013-08-01 20:47:00,70.2,64.0,29.80,WSW,245,0.0,11.0,81,0.00,,,0.59,meteohub,2013-08-02 00:47:00,
2013-08-01 20:52:00,70.2,64.4,29.80,West,265,2.0,10.0,82,0.00,,,0.59,meteohub,2013-08-02 00:52:00,
2013-08-01 20:57:00,70.2,64.4,29.81,SW,232,3.0,12.0,82,0.00,,,0.59,meteohub,2013-08-02 00:57:00,
2013-08-01 21:02:00,70.0,64.2,29.81,WNW,288,7.0,12.0,82,0.00,,,0.59,meteohub,2013-08-02 01:02:00,
2013-08-01 21:07:00,70.0,64.2,29.81,West,269,0.0,12.0,82,0.00,,,0.59,meteohub,2013-08-02 01:07:00,
2013-08-01 21:13:00,69.8,64.0,29.81,West,269,1.0,8.0,82,0.00,,,0.59,meteohub,2013-08-02 01:13:00,
2013-08-01 21:18:00,69.6,63.9,29.81,WSW,238,4.0,8.0,82,0.00,,,0.59,meteohub,2013-08-02 01:18:00,
2013-08-01 21:24:00,69.4,64.0,29.81,WSW,238,3.0,6.0,83,0.00,,,0.59,meteohub,2013-08-02 01:24:00,
2013-08-01 21:29:00,69.4,64.0,29.81,West,279,0.0,7.0,83,0.00,,,0.59,meteohub,2013-08-02 01:29:00,
2013-08-01 21:34:00,69.3,63.9,29.81,West,276,0.0,7.0,83,0.00,,,0.59,meteohub,2013-08-02 01:34:00,
2013-08-01 21:39:00,69.3,63.9,29.81,West,276,6.0,7.0,83,0.00,,,0.59,meteohub,2013-08-02 01:39:00,
2013-08-01 21:44:00,69.1,63.7,29.81,West,276,0.0,6.0,83,0.00,,,0.59,meteohub,2013-08-02 01:44:00,
2013-08-01 21:49:00,68.9,63.9,29.81,West,276,0.0,6.0,84,0.00,,,0.59,meteohub,2013-08-02 01:49:00,
2013-08-01 21:54:00,68.7,63.7,29.81,West,276,2.0,6.0,84,0.00,,,0.59,meteohub,2013-08-02 01:54:00,
2013-08-01 21:59:00,68.5,63.5,29.81,West,276,0.0,6.0,84,0.00,,,0.59,meteohub,2013-08-02 01:59:00,
2013-08-01 22:04:00,68.5,63.5,29.81,West,276,0.0,6.0,84,0.00,,,0.59,meteohub,2013-08-02 02:04:00,
2013-08-01 22:09:00,68.4,63.7,29.81,West,276,0.0,5.0,85,0.00,,,0.59,meteohub,2013-08-02 02:09:00,
2013-08-01 22:14:00,68.4,63.3,29.81,West,276,0.0,4.0,84,0.00,,,0.59,meteohub,2013-08-02 02:14:00,
2013-08-01 22:19:00,68.2,63.1,29.81,West,276,0.0,4.0,84,0.00,,,0.59,meteohub,2013-08-02 02:19:00,
2013-08-01 22:24:00,68.0,63.0,29.81,West,276,0.0,4.0,84,0.00,,,0.59,meteohub,2013-08-02 02:24:00,
2013-08-01 22:29:00,67.8,63.1,29.81,West,276,0.0,4.0,85,0.00,,,0.59,meteohub,2013-08-02 02:29:00,
2013-08-01 22:35:00,67.8,63.1,29.81,West,276,0.0,4.0,85,0.00,,,0.59,meteohub,2013-08-02 02:35:00,
2013-08-01 22:40:00,67.6,63.0,29.81,West,261,0.0,4.0,85,0.00,,,0.59,meteohub,2013-08-02 02:40:00,
2013-08-01 22:45:00,67.5,62.8,29.81,West,261,0.0,5.0,85,0.00,,,0.59,meteohub,2013-08-02 02:45:00,
2013-08-01 22:50:00,67.5,62.8,29.81,West,273,0.0,5.0,85,0.00,,,0.59,meteohub,2013-08-02 02:50:00,
2013-08-01 22:55:00,67.3,62.6,29.81,West,273,0.0,5.0,85,0.00,,,0.59,meteohub,2013-08-02 02:55:00,
2013-08-01 23:01:00,67.3,63.0,29.81,West,273,0.0,4.0,86,0.00,,,0.59,meteohub,2013-08-02 03:01:00,
2013-08-01 23:07:00,66.9,62.6,29.81,West,270,0.0,5.0,86,0.00,,,0.59,meteohub,2013-08-02 03:07:00,
2013-08-01 23:12:00,66.9,62.6,29.81,West,270,1.0,5.0,86,0.00,,,0.59,meteohub,2013-08-02 03:12:00,
2013-08-01 23:17:00,66.7,62.4,29.81,West,270,0.0,5.0,86,0.00,,,0.59,meteohub,2013-08-02 03:17:00,
2013-08-01 23:22:00,66.6,62.2,29.81,West,270,0.0,5.0,86,0.00,,,0.59,meteohub,2013-08-02 03:22:00,
2013-08-01 23:28:00,66.2,61.9,29.81,West,270,0.0,2.0,86,0.00,,,0.59,meteohub,2013-08-02 03:28:00,
2013-08-01 23:33:00,66.0,62.1,29.81,West,270,0.0,2.0,87,0.00,,,0.59,meteohub,2013-08-02 03:33:00,
2013-08-01 23:38:00,65.8,61.9,29.81,West,270,0.0,2.0,87,0.00,,,0.59,meteohub,2013-08-02 03:38:00,
2013-08-01 23:43:00,65.7,61.7,29.81,West,270,1.0,2.0,87,0.00,,,0.59,meteohub,2013-08-02 03:43:00,
2013-08-01 23:50:00,65.7,61.7,29.82,West,270,0.0,2.0,87,0.00,,,0.59,meteohub,2013-08-02 03:50:00,
2013-08-01 23:55:00,65.5,61.5,29.82,West,270,0.0,2.0,87,0.00,,,0.59,meteohub,2013-08-02 03:55:00,